Miscellaneous Local Product
Issued by NWS Hastings, NE

Home | Current Version | Previous Version | Text Only | Print | Product List | Glossary On
Versions: 1 2 3 4 5 6 7 8 9 10 11 12 13 14 15 16 17 18 19 20 21 22 23 24 25 26 27 28 29 30 31 32 33 34 35 36 37 38 39 40 41 42 43 44 45 46 47 48 49 50
000
AXUS43 KGID 181502
MISGRI

GID CWA HOURLY WEATHER ROUNDUP
NATIONAL WEATHER SERVICE HASTINGS NE
900 AM CST MON DEC 18 2017

NOTE: "FAIR" INDICATES FEW OR NO CLOUDS BELOW 12,000 FEET WITH NO
SIGNIFICANT WEATHER AND/OR OBSTRUCTIONS TO VISIBILITY.

...SOUTH CENTRAL NEBRASKA...

CITY           SKY/WX    TMP DP  RH WIND       PRES   REMARKS
GRAND ISLAND   CLOUDY    31  24  75 W10       29.95S WCI  22
KEARNEY        CLOUDY    29  23  78 SW9       29.97R WCI  20
HASTINGS       CLOUDY    27  21  78 SW6       29.97R WCI  20
ORD            CLOUDY    28  21  75 CALM      29.91S
YORK           CLOUDY    28  28 100 SW9       29.96S WCI  20
AURORA         CLOUDY    29  25  83 W8        29.95F WCI  21
LEXINGTON      CLOUDY    24  21  87 W3        29.97R
HOLDREGE       CLOUDY    28  24  86 W8        29.97F WCI  20
HEBRON         CLOUDY    30  26  83 W8        30.01R WCI  23

...NEBRASKA PANHANDLE...

CITY           SKY/WX    TMP DP  RH WIND       PRES   REMARKS
CHADRON        CLOUDY    21  16  81 CALM      29.84S
ALLIANCE       CLOUDY    27  21  78 SW5       29.87S WCI  22
SCOTTSBLUFF    CLOUDY    37  23  56 SW7       29.89F WCI  32
SIDNEY         CLOUDY    27  21  78 SW13      29.94S WCI  16

...WESTERN AND NORTH CENTRAL NEBRASKA...

CITY           SKY/WX    TMP DP  RH WIND       PRES   REMARKS
VALENTINE      CLEAR     30  21  69 SW5       29.84S WCI  25
AINSWORTH      CLEAR     32  24  71 W8        29.84F WCI  25
ONEILL         CLEAR     30  25  80 SW8       29.86F WCI  23
BROKEN BOW     CLOUDY    29  20  69 W5        29.91S WCI  24
IMPERIAL       CLOUDY    23  18  81 W8        29.97R WCI  14
NORTH PLATTE   CLEAR     22  19  89 CALM      29.95S
MCCOOK         CLOUDY    23  20  88 SW9       29.99F WCI  13

...EASTERN NEBRASKA...

CITY           SKY/WX    TMP DP  RH WIND       PRES   REMARKS
NORFOLK        CLOUDY    31  25  78 W10       29.89R WCI  22
SO SIOUX CITY  CLOUDY    22  21  96 SE6       29.88S FOG     WCI  14
TEKAMAH        CLEAR     31  25  78 SW7       29.91S WCI  24
COLUMBUS       CLEAR     32  27  81 SW10      29.94R WCI  24
ALBION         CLOUDY    32  24  73 CALM      29.92R
OMAHA EPPLEY   MOSUNNY   34  27  75 SW7       29.95R WCI  28
OFFUTT AFB     MOSUNNY   31  30  96 SW5       29.95R WCI  26
MILLARD        MOSUNNY   35  29  80 W7        29.95S WCI  29
LINCOLN        CLOUDY    33  26  75 W5        29.98R WCI  29
NEBRASKA CITY  SUNNY     33  33  99 W15       29.98R WCI  23
BEATRICE       SUNNY     32  29  90 W10       30.00R WCI  24
FALLS CITY     SUNNY     34  31  88 S12       30.01R WCI  25

...NORTHERN KANSAS...

CITY           SKY/WX    TMP DP  RH WIND       PRES   REMARKS
GOODLAND       CLEAR     28  23  81 SW10      29.99S WCI  19
HILL CITY      CLEAR     28  24  85 SW7       30.04R WCI  21
NORTON         SUNNY     25  19  80 W5        30.00R WCI  19
PHILLIPSBURG   CLEAR     27  23  86 W3        30.03R
SMITH CENTER   CLEAR     23  21  93 W5        30.05R WCI  17
HAYS           SUNNY     28  26  92 W6        30.06R WCI  22
RUSSELL        SUNNY     25  23  92 W9        30.04R WCI  15
CONCORDIA      CLOUDY    32  28  85 W9        30.03R WCI  24
SALINA         CLOUDY    33  29  85 SW12      30.07S WCI  24
TOPEKA         SUNNY     36  36 100 CALM      30.08S



USA.gov is the U.S. government's official web portal to all federal, state and local government web resources and services.